This demonstration page uses our WeatherBlox Daily Observations layout. Learn more.

Left ArrowRight Arrow

Hourly Observations for April 2, 2018

Temp ( °F °C ) Dew Point ( °F °C ) Humidity (%) Winds ( mph kmh ) Pressure ( in mb ) Visibility ( mi km ) Precip ( " mm )
12:59 am 00:59 Cloudy 59 15 46 7.8 62 62 S 7 11 29.99 1016 10 16 0.00 0.00
1:59 am 01:59 Cloudy 60 15.6 49 9.4 67 67 S 9 15 29.97 1015 10 16 0.00 0.00
2:59 am 02:59 Cloudy 59 15 50 10 72 72 S 8 13 29.94 1014 10 16 0.00 0.00
3:59 am 03:59 Cloudy 59 15 51 10.6 75 75 SSW 8 13 29.92 1013 10 16 0.00 0.00
4:59 am 04:59 Cloudy 60 15.6 52 11.1 75 75 SSW 10 17 29.92 1013 10 16 0.00 0.00
5:59 am 05:59 Cloudy 62 16.7 53 11.7 73 73 SSW 14 22 29.90 1013 10 16 0.00 0.00
6:59 am 06:59 Cloudy 62 16.7 53 11.7 73 73 SSW 13 20 29.91 1013 10 16 0.00 0.00
7:59 am 07:59 Cloudy 61 16.1 53 11.7 75 75 W 7 11 29.95 1014 10 16 0.00 0.00
8:59 am 08:59 Cloudy 62 16.7 53 11.7 73 73 W 8 13 29.97 1015 10 16 0.00 0.00
9:59 am 09:59 Cloudy 53 11.7 47 8.3 80 80 NNE 12 19 30.01 1016 10 16 0.00 0.00
10:16 am 10:16 Mostly Cloudy 53 11.7 47 8.3 80 80 NE 13 20 30.03 1017 9 14 0.00 0.00
10:59 am 10:59 Mostly Cloudy 53 11.7 45 7.2 74 74 NNE 17 28 30.02 1017 8 13 0.00 0.00
11:30 am 11:30 Mostly Cloudy 51 10.6 44 6.7 77 77 NNE 21 33 30.03 1017 8 13 0.00 0.00
11:52 am 11:52 Mostly Cloudy 51 10.6 43 6.1 74 74 NNE 20 31 30.06 1018 9 14 0.00 0.00
11:59 am 11:59 Mostly Cloudy 51 10.6 43 6.1 74 74 NNE 20 31 30.05 1018 9 14 0.00 0.00
12:59 pm 12:59 Mostly Cloudy 51 10.6 41 5 69 69 NNE 21 33 30.07 1018 9 14 0.00 0.00
1:59 pm 13:59 Mostly Cloudy 51 10.6 41 5 69 69 N 18 30 30.08 1019 8 13 0.00 0.00
2:59 pm 14:59 Mostly Cloudy 50 10 40 4.4 68 68 NNE 21 33 30.09 1019 9 14 0.00 0.00
3:59 pm 15:59 Mostly Cloudy 49 9.4 40 4.4 71 71 NE 21 33 30.09 1019 9 14 0.00 0.00
4:21 pm 16:21 Mostly Cloudy 49 9.4 40 4.4 71 71 NNE 17 28 30.09 1019 9 14 0.00 0.00
4:52 pm 16:52 Cloudy 48 8.9 40 4.4 74 74 NNE 17 28 30.12 1020 9 14 0.00 0.00
4:59 pm 16:59 Cloudy 48 8.9 40 4.4 74 74 NNE 18 30 30.11 1020 9 14 0.00 0.00
5:59 pm 17:59 Cloudy 47 8.3 40 4.4 77 77 ENE 13 20 30.11 1020 8 13 0.00 0.00
6:59 pm 18:59 Cloudy 46 7.8 39 3.9 77 77 ENE 16 26 30.13 1020 9 14 0.00 0.00
7:59 pm 19:59 Cloudy 45 7.2 38 3.3 77 77 ENE 15 24 30.15 1021 10 16 0.00 0.00
8:59 pm 20:59 Cloudy 44 6.7 38 3.3 79 79 E 16 26 30.16 1021 10 16 0.00 0.00
9:14 pm 21:14 Cloudy 44 6.7 38 3.3 79 79 E 15 24 30.15 1021 10 16 0.00 0.00
9:59 pm 21:59 Mostly Cloudy 44 6.7 38 3.3 79 79 ENE 12 19 30.19 1023 10 16 0.00 0.00
10:59 pm 22:59 Cloudy 43 6.1 38 3.3 82 82 E 15 24 30.17 1022 10 16 0.00 0.03
11:52 pm 23:52 Cloudy 44 6.7 38 3.3 79 79 E 14 22 30.18 1022 10 16 0.00 0.00
11:59 pm 23:59 Cloudy 44 6.7 38 3.3 79 79 E 10 17 30.19 1022 10 16 0.00 0.00

Powered by AerisWeather